Time,TemperatureF,DewpointF,PressureIn,WindDirection,WindDirectionDegrees,WindSpeedMPH,WindSpeedGustMPH,Humidity,HourlyPrecipIn,Conditions,Clouds,dailyrainin,SoftwareType,DateUTC
2013-04-06 00:04:00,46.5,45.1,30.13,NNW,333,0.0,0.0,95,0.00,,,0.00,WeatherCatV1.02B3,2013-04-06 07:04:00,
2013-04-06 00:09:00,46.6,45.2,30.13,NNW,335,0.0,2.0,95,0.00,,,0.00,WeatherCatV1.02B3,2013-04-06 07:09:00,
2013-04-06 00:14:00,46.7,45.3,30.13,NNW,337,3.0,4.0,95,0.00,,,0.00,WeatherCatV1.02B3,2013-04-06 07:14:00,
2013-04-06 00:19:00,46.9,45.3,30.13,NNW,338,2.0,5.0,94,0.00,,,0.00,WeatherCatV1.02B3,2013-04-06 07:19:00,
2013-04-06 00:24:00,47.1,45.5,30.13,NW,325,4.0,4.0,94,0.00,,,0.00,WeatherCatV1.02B3,2013-04-06 07:24:00,
2013-04-06 00:29:00,47.4,45.5,30.12,NNW,337,2.0,4.0,93,0.00,,,0.00,WeatherCatV1.02B3,2013-04-06 07:29:00,
2013-04-06 00:34:00,47.4,45.5,30.12,NNW,342,2.0,3.0,93,0.00,,,0.00,WeatherCatV1.02B3,2013-04-06 07:34:00,
2013-04-06 00:39:00,47.5,45.3,30.12,NNW,333,2.0,3.0,92,0.00,,,0.00,WeatherCatV1.02B3,2013-04-06 07:39:00,
2013-04-06 00:44:00,47.6,45.1,30.12,NNW,342,1.0,3.0,91,0.00,,,0.00,WeatherCatV1.02B3,2013-04-06 07:44:00,
2013-04-06 00:49:00,47.8,45.3,30.12,NNW,339,3.0,4.0,91,0.00,,,0.00,WeatherCatV1.02B3,2013-04-06 07:49:00,
2013-04-06 00:54:00,48.0,45.2,30.12,NNW,337,4.0,4.0,90,0.00,,,0.00,WeatherCatV1.02B3,2013-04-06 07:54:00,
2013-04-06 00:59:00,48.1,45.3,30.12,NNW,335,4.0,4.0,90,0.00,,,0.00,WeatherCatV1.02B3,2013-04-06 07:59:00,
2013-04-06 01:04:00,47.9,45.1,30.12,NNW,333,4.0,6.0,90,0.00,,,0.00,WeatherCatV1.02B3,2013-04-06 08:04:00,
2013-04-06 01:09:00,47.8,45.0,30.12,NNW,335,3.0,4.0,90,0.00,,,0.00,WeatherCatV1.02B3,2013-04-06 08:09:00,
2013-04-06 01:14:00,47.9,44.8,30.12,NNW,342,2.0,2.0,89,0.00,,,0.00,WeatherCatV1.02B3,2013-04-06 08:14:00,
2013-04-06 01:19:00,48.1,44.7,30.12,NNW,333,3.0,3.0,88,0.00,,,0.00,WeatherCatV1.02B3,2013-04-06 08:19:00,
2013-04-06 01:24:00,48.3,44.6,30.12,NNW,329,2.0,3.0,87,0.00,,,0.00,WeatherCatV1.02B3,2013-04-06 08:24:00,
2013-04-06 01:29:00,48.6,44.6,30.12,NNW,333,2.0,3.0,86,0.00,,,0.00,WeatherCatV1.02B3,2013-04-06 08:29:00,
2013-04-06 01:34:00,48.7,45.0,30.12,NNW,334,0.0,1.0,87,0.00,,,0.00,WeatherCatV1.02B3,2013-04-06 08:34:00,
2013-04-06 01:39:00,48.7,44.7,30.12,NNW,334,0.0,0.0,86,0.00,,,0.00,WeatherCatV1.02B3,2013-04-06 08:39:00,
2013-04-06 01:44:00,48.6,44.9,30.13,NNW,334,0.0,0.0,87,0.00,,,0.00,WeatherCatV1.02B3,2013-04-06 08:44:00,
2013-04-06 01:49:00,48.4,45.0,30.13,NNW,334,0.0,0.0,88,0.00,,,0.00,WeatherCatV1.02B3,2013-04-06 08:49:00,
2013-04-06 01:54:00,48.3,45.2,30.13,NNW,334,0.0,0.0,89,0.00,,,0.00,WeatherCatV1.02B3,2013-04-06 08:54:00,
2013-04-06 01:59:00,48.1,45.0,30.13,NNW,334,0.0,0.0,89,0.00,,,0.00,WeatherCatV1.02B3,2013-04-06 08:59:00,
2013-04-06 02:04:00,47.8,45.0,30.13,NNW,334,0.0,0.0,90,0.00,,,0.00,WeatherCatV1.02B3,2013-04-06 09:04:00,
2013-04-06 02:09:00,47.6,45.1,30.13,NNW,334,0.0,0.0,91,0.00,,,0.00,WeatherCatV1.02B3,2013-04-06 09:09:00,
2013-04-06 02:14:00,47.3,44.8,30.13,NNW,334,0.0,0.0,91,0.00,,,0.00,WeatherCatV1.02B3,2013-04-06 09:14:00,
2013-04-06 02:19:00,47.1,44.9,30.13,NNW,334,0.0,0.0,92,0.00,,,0.00,WeatherCatV1.02B3,2013-04-06 09:19:00,
2013-04-06 02:24:00,46.9,45.3,30.13,NNW,334,0.0,0.0,94,0.00,,,0.00,WeatherCatV1.02B3,2013-04-06 09:24:00,
2013-04-06 02:29:00,46.7,45.1,30.12,NNW,334,0.0,0.0,94,0.00,,,0.00,WeatherCatV1.02B3,2013-04-06 09:29:00,
2013-04-06 02:34:00,46.6,45.2,30.12,NNW,334,0.0,0.0,95,0.00,,,0.00,WeatherCatV1.02B3,2013-04-06 09:34:00,
2013-04-06 02:39:00,46.5,45.1,30.12,NNW,334,0.0,0.0,95,0.00,,,0.00,WeatherCatV1.02B3,2013-04-06 09:39:00,
2013-04-06 02:44:00,46.4,45.0,30.12,NNW,334,0.0,0.0,95,0.00,,,0.00,WeatherCatV1.02B3,2013-04-06 09:44:00,
2013-04-06 02:49:00,46.3,45.2,30.12,NNW,334,0.0,0.0,96,0.00,,,0.00,WeatherCatV1.02B3,2013-04-06 09:49:00,
2013-04-06 02:54:00,46.3,45.2,30.12,NNW,334,0.0,0.0,96,0.00,,,0.00,WeatherCatV1.02B3,2013-04-06 09:54:00,
2013-04-06 02:59:00,46.2,45.1,30.11,NNW,334,0.0,0.0,96,0.00,,,0.00,WeatherCatV1.02B3,2013-04-06 09:59:00,
2013-04-06 03:04:00,46.1,45.0,30.11,NNW,334,0.0,0.0,96,0.00,,,0.00,WeatherCatV1.02B3,2013-04-06 10:04:00,
2013-04-06 03:09:00,45.9,44.8,30.11,NNW,334,0.0,0.0,96,0.00,,,0.00,WeatherCatV1.02B3,2013-04-06 10:09:00,
2013-04-06 03:14:00,45.8,44.7,30.11,NNW,334,0.0,0.0,96,0.00,,,0.00,WeatherCatV1.02B3,2013-04-06 10:14:00,
2013-04-06 03:20:00,45.5,44.4,30.11,NNW,334,0.0,0.0,96,0.00,,,0.00,WeatherCatV1.02B3,2013-04-06 10:20:00,
2013-04-06 03:25:00,45.3,44.2,30.11,NNW,334,0.0,0.0,96,0.00,,,0.00,WeatherCatV1.02B3,2013-04-06 10:25:00,
2013-04-06 03:30:00,45.3,44.2,30.11,NNW,334,0.0,0.0,96,0.00,,,0.00,WeatherCatV1.02B3,2013-04-06 10:30:00,
2013-04-06 03:35:00,45.2,44.1,30.11,NNW,334,0.0,0.0,96,0.00,,,0.00,WeatherCatV1.02B3,2013-04-06 10:35:00,
2013-04-06 03:40:00,45.1,44.0,30.11,NNW,334,0.0,0.0,96,0.00,,,0.00,WeatherCatV1.02B3,2013-04-06 10:40:00,
2013-04-06 03:45:00,44.9,43.8,30.10,NNW,334,1.0,1.0,96,0.00,,,0.00,WeatherCatV1.02B3,2013-04-06 10:45:00,
2013-04-06 03:50:00,44.7,43.6,30.10,NNW,333,2.0,3.0,96,0.00,,,0.00,WeatherCatV1.02B3,2013-04-06 10:50:00,
2013-04-06 03:55:00,44.7,43.9,30.10,NNW,328,3.0,5.0,97,0.00,,,0.00,WeatherCatV1.02B3,2013-04-06 10:55:00,
2013-04-06 04:00:00,45.0,44.2,30.10,NNE,15,3.0,5.0,97,0.00,,,0.00,WeatherCatV1.02B3,2013-04-06 11:00:00,
2013-04-06 04:05:00,45.2,44.4,30.10,NNW,335,4.0,4.0,97,0.00,,,0.00,WeatherCatV1.02B3,2013-04-06 11:05:00,
2013-04-06 04:10:00,45.5,44.7,30.10,NW,318,3.0,5.0,97,0.00,,,0.00,WeatherCatV1.02B3,2013-04-06 11:10:00,
2013-04-06 04:15:00,45.8,44.7,30.10,NW,321,2.0,3.0,96,0.00,,,0.00,WeatherCatV1.02B3,2013-04-06 11:15:00,
2013-04-06 04:20:00,46.1,44.7,30.10,NNW,333,1.0,2.0,95,0.00,,,0.00,WeatherCatV1.02B3,2013-04-06 11:20:00,
2013-04-06 04:25:00,46.3,44.7,30.10,NNW,335,3.0,3.0,94,0.00,,,0.00,WeatherCatV1.02B3,2013-04-06 11:25:00,
2013-04-06 04:30:00,46.7,44.8,30.10,NNW,337,2.0,4.0,93,0.00,,,0.00,WeatherCatV1.02B3,2013-04-06 11:30:00,
2013-04-06 04:33:00,46.9,44.7,30.10,NNW,339,3.0,3.0,92,0.00,,,0.00,WeatherCatV1.02B3,2013-04-06 11:33:00,
2013-04-06 04:38:00,47.1,44.9,30.10,NNW,335,3.0,4.0,92,0.00,,,0.00,WeatherCatV1.02B3,2013-04-06 11:38:00,
2013-04-06 04:43:00,47.2,44.7,30.10,NNW,345,2.0,4.0,91,0.00,,,0.00,WeatherCatV1.02B3,2013-04-06 11:43:00,
2013-04-06 04:49:00,47.3,44.8,30.10,NNW,341,2.0,3.0,91,0.00,,,0.00,WeatherCatV1.02B3,2013-04-06 11:49:00,
2013-04-06 04:54:00,47.3,44.8,30.10,NNW,346,1.0,2.0,91,0.00,,,0.00,WeatherCatV1.02B3,2013-04-06 11:54:00,
2013-04-06 04:59:00,47.2,45.0,30.10,NNW,339,1.0,1.0,92,0.00,,,0.00,WeatherCatV1.02B3,2013-04-06 11:59:00,
2013-04-06 05:04:00,47.2,45.0,30.10,NNW,334,1.0,2.0,92,0.00,,,0.00,WeatherCatV1.02B3,2013-04-06 12:04:00,
2013-04-06 05:09:00,47.2,45.0,30.10,NNW,342,0.0,2.0,92,0.00,,,0.00,WeatherCatV1.02B3,2013-04-06 12:09:00,
2013-04-06 05:14:00,47.3,45.1,30.10,NNW,342,0.0,1.0,92,0.00,,,0.00,WeatherCatV1.02B3,2013-04-06 12:14:00,
2013-04-06 05:19:00,47.2,45.0,30.10,NNW,342,0.0,0.0,92,0.00,,,0.00,WeatherCatV1.02B3,2013-04-06 12:19:00,
2013-04-06 05:24:00,47.2,45.0,30.10,NNW,342,0.0,0.0,92,0.00,,,0.00,WeatherCatV1.02B3,2013-04-06 12:24:00,
2013-04-06 05:29:00,47.2,45.0,30.10,NNW,342,0.0,0.0,92,0.00,,,0.00,WeatherCatV1.02B3,2013-04-06 12:29:00,
2013-04-06 05:34:00,47.2,45.0,30.11,NNW,342,0.0,0.0,92,0.00,,,0.00,WeatherCatV1.02B3,2013-04-06 12:34:00,
2013-04-06 05:39:00,47.0,44.8,30.11,NNW,342,0.0,0.0,92,0.00,,,0.00,WeatherCatV1.02B3,2013-04-06 12:39:00,
2013-04-06 05:44:00,46.8,44.6,30.11,NNW,342,0.0,0.0,92,0.00,,,0.00,WeatherCatV1.02B3,2013-04-06 12:44:00,
2013-04-06 05:49:00,46.6,44.4,30.11,NNW,342,0.0,0.0,92,0.00,,,0.00,WeatherCatV1.02B3,2013-04-06 12:49:00,
2013-04-06 05:54:00,46.4,44.2,30.11,NNW,342,0.0,0.0,92,0.00,,,0.00,WeatherCatV1.02B3,2013-04-06 12:54:00,
2013-04-06 05:59:00,46.2,44.3,30.11,NNW,342,0.0,0.0,93,0.00,,,0.00,WeatherCatV1.02B3,2013-04-06 12:59:00,
2013-04-06 06:04:00,46.0,44.1,30.11,NNW,342,0.0,0.0,93,0.00,,,0.00,WeatherCatV1.02B3,2013-04-06 13:04:00,
2013-04-06 06:09:00,45.6,43.7,30.11,NNW,342,0.0,1.0,93,0.00,,,0.00,WeatherCatV1.02B3,2013-04-06 13:09:00,
2013-04-06 06:14:00,45.3,43.7,30.12,NNW,342,0.0,0.0,94,0.00,,,0.00,WeatherCatV1.02B3,2013-04-06 13:14:00,
2013-04-06 06:19:00,45.2,43.9,30.12,NNW,342,0.0,0.0,95,0.00,,,0.00,WeatherCatV1.02B3,2013-04-06 13:19:00,
2013-04-06 06:24:00,45.1,43.8,30.12,NNW,342,0.0,0.0,95,0.00,,,0.00,WeatherCatV1.02B3,2013-04-06 13:24:00,
2013-04-06 06:29:00,45.0,43.7,30.12,NNW,332,2.0,2.0,95,0.00,,,0.00,WeatherCatV1.02B3,2013-04-06 13:29:00,
2013-04-06 06:34:00,45.2,44.1,30.12,NNW,327,2.0,3.0,96,0.00,,,0.00,WeatherCatV1.02B3,2013-04-06 13:34:00,
2013-04-06 06:39:00,45.5,44.4,30.12,NNW,336,0.0,1.0,96,0.00,,,0.00,WeatherCatV1.02B3,2013-04-06 13:39:00,
2013-04-06 06:44:00,45.7,44.6,30.12,NNW,336,0.0,1.0,96,0.00,,,0.00,WeatherCatV1.02B3,2013-04-06 13:44:00,
2013-04-06 06:49:00,45.8,44.4,30.12,NNW,336,0.0,0.0,95,0.00,,,0.00,WeatherCatV1.02B3,2013-04-06 13:49:00,
2013-04-06 06:54:00,45.8,44.4,30.12,NNW,336,0.0,0.0,95,0.00,,,0.00,WeatherCatV1.02B3,2013-04-06 13:54:00,
2013-04-06 06:59:00,45.7,44.3,30.12,NNW,336,0.0,0.0,95,0.00,,,0.00,WeatherCatV1.02B3,2013-04-06 13:59:00,
2013-04-06 07:04:00,45.7,44.3,30.12,NNW,336,0.0,0.0,95,0.00,,,0.00,WeatherCatV1.02B3,2013-04-06 14:04:00,
2013-04-06 07:09:00,45.8,44.4,30.12,NNW,336,0.0,0.0,95,0.00,,,0.00,WeatherCatV1.02B3,2013-04-06 14:09:00,
2013-04-06 07:14:00,45.8,44.2,30.12,NNW,336,0.0,0.0,94,0.00,,,0.00,WeatherCatV1.02B3,2013-04-06 14:14:00,
2013-04-06 07:19:00,45.8,44.2,30.12,NNW,336,0.0,0.0,94,0.00,,,0.00,WeatherCatV1.02B3,2013-04-06 14:19:00,
2013-04-06 07:24:00,45.8,44.2,30.12,NNW,336,0.0,0.0,94,0.00,,,0.00,WeatherCatV1.02B3,2013-04-06 14:24:00,
2013-04-06 07:29:00,45.9,44.5,30.12,NNW,336,0.0,0.0,95,0.00,,,0.00,WeatherCatV1.02B3,2013-04-06 14:29:00,
2013-04-06 07:34:00,46.0,44.6,30.12,NNW,336,0.0,0.0,95,0.00,,,0.00,WeatherCatV1.02B3,2013-04-06 14:34:00,
2013-04-06 07:39:00,46.1,44.7,30.12,NNW,335,2.0,2.0,95,0.00,,,0.00,WeatherCatV1.02B3,2013-04-06 14:39:00,
2013-04-06 07:44:00,46.3,44.9,30.13,NNW,339,1.0,1.0,95,0.00,,,0.00,WeatherCatV1.02B3,2013-04-06 14:44:00,
2013-04-06 07:49:00,46.6,45.0,30.13,NNW,339,0.0,2.0,94,0.00,,,0.00,WeatherCatV1.02B3,2013-04-06 14:49:00,
2013-04-06 07:54:00,47.0,45.4,30.13,NNW,339,1.0,1.0,94,0.00,,,0.00,WeatherCatV1.02B3,2013-04-06 14:54:00,
2013-04-06 07:59:00,47.4,45.2,30.12,NNW,333,0.0,1.0,92,0.00,,,0.00,WeatherCatV1.02B3,2013-04-06 14:59:00,
2013-04-06 08:04:00,47.9,45.4,30.12,NNW,333,2.0,2.0,91,0.00,,,0.00,WeatherCatV1.02B3,2013-04-06 15:04:00,
2013-04-06 08:09:00,48.6,45.8,30.12,NNW,335,0.0,2.0,90,0.00,,,0.00,WeatherCatV1.02B3,2013-04-06 15:09:00,
2013-04-06 08:14:00,49.1,46.0,30.12,NNW,334,0.0,0.0,89,0.00,,,0.00,WeatherCatV1.02B3,2013-04-06 15:14:00,
2013-04-06 08:19:00,49.5,46.4,30.12,NNW,334,0.0,0.0,89,0.00,,,0.00,WeatherCatV1.02B3,2013-04-06 15:19:00,
2013-04-06 08:24:00,49.8,47.3,30.12,NNW,338,0.0,0.0,91,0.00,,,0.00,WeatherCatV1.02B3,2013-04-06 15:24:00,
2013-04-06 08:29:00,50.1,47.3,30.13,NNW,338,0.0,0.0,90,0.00,,,0.00,WeatherCatV1.02B3,2013-04-06 15:29:00,
2013-04-06 08:34:00,50.3,47.5,30.13,NNW,338,0.0,0.0,90,0.00,,,0.00,WeatherCatV1.02B3,2013-04-06 15:34:00,
2013-04-06 08:39:00,50.5,47.7,30.13,NNW,340,0.0,0.0,90,0.00,,,0.00,WeatherCatV1.02B3,2013-04-06 15:39:00,
2013-04-06 08:44:00,50.6,48.1,30.13,SE,144,1.0,1.0,91,0.00,,,0.00,WeatherCatV1.02B3,2013-04-06 15:44:00,
2013-04-06 08:49:00,50.4,47.6,30.13,SE,140,0.0,0.0,90,0.00,,,0.00,WeatherCatV1.02B3,2013-04-06 15:49:00,
2013-04-06 08:54:00,50.4,47.9,30.13,SE,140,0.0,0.0,91,0.00,,,0.00,WeatherCatV1.02B3,2013-04-06 15:54:00,
2013-04-06 08:59:00,50.3,47.8,30.14,SE,140,0.0,0.0,91,0.00,,,0.00,WeatherCatV1.02B3,2013-04-06 15:59:00,
2013-04-06 09:04:00,50.2,48.0,30.14,SE,140,0.0,0.0,92,0.00,,,0.00,WeatherCatV1.02B3,2013-04-06 16:04:00,
2013-04-06 09:09:00,50.3,48.4,30.14,SE,140,0.0,0.0,93,0.00,,,0.00,WeatherCatV1.02B3,2013-04-06 16:09:00,
2013-04-06 09:14:00,50.5,48.6,30.14,SE,140,0.0,0.0,93,0.00,,,0.00,WeatherCatV1.02B3,2013-04-06 16:14:00,
2013-04-06 09:19:00,50.5,48.3,30.14,SE,140,0.0,0.0,92,0.00,,,0.00,WeatherCatV1.02B3,2013-04-06 16:19:00,
2013-04-06 09:24:00,50.5,48.3,30.14,SE,140,0.0,0.0,92,0.00,,,0.00,WeatherCatV1.02B3,2013-04-06 16:24:00,
2013-04-06 09:29:00,50.6,48.4,30.14,SE,140,0.0,0.0,92,0.00,,,0.00,WeatherCatV1.02B3,2013-04-06 16:29:00,
2013-04-06 09:34:00,50.6,48.7,30.14,SSE,149,0.0,0.0,93,0.00,,,0.00,WeatherCatV1.02B3,2013-04-06 16:34:00,
2013-04-06 09:39:00,50.8,48.8,30.14,SSE,149,0.0,0.0,93,0.00,,,0.00,WeatherCatV1.02B3,2013-04-06 16:39:00,
2013-04-06 09:44:00,51.0,49.0,30.14,SSE,151,0.0,1.0,93,0.00,,,0.00,WeatherCatV1.02B3,2013-04-06 16:44:00,
2013-04-06 09:49:00,51.2,49.0,30.14,SSE,151,0.0,0.0,92,0.00,,,0.00,WeatherCatV1.02B3,2013-04-06 16:49:00,
2013-04-06 09:54:00,51.4,48.9,30.14,SSE,157,0.0,1.0,91,0.00,,,0.00,WeatherCatV1.02B3,2013-04-06 16:54:00,
2013-04-06 09:59:00,51.8,49.5,30.14,SSE,157,0.0,1.0,92,0.00,,,0.00,WeatherCatV1.02B3,2013-04-06 16:59:00,
2013-04-06 10:04:00,52.2,49.7,30.14,SSE,162,0.0,1.0,91,0.00,,,0.00,WeatherCatV1.02B3,2013-04-06 17:04:00,
2013-04-06 10:09:00,52.5,49.4,30.14,SSE,163,0.0,0.0,89,0.00,,,0.00,WeatherCatV1.02B3,2013-04-06 17:09:00,
2013-04-06 10:14:00,52.7,49.8,30.14,SSE,158,0.0,1.0,90,0.00,,,0.00,WeatherCatV1.02B3,2013-04-06 17:14:00,
2013-04-06 10:19:00,52.8,49.6,30.14,SSE,158,0.0,0.0,89,0.00,,,0.00,WeatherCatV1.02B3,2013-04-06 17:19:00,
2013-04-06 10:24:00,53.0,50.1,30.14,SSE,158,0.0,0.0,90,0.00,,,0.00,WeatherCatV1.02B3,2013-04-06 17:24:00,
2013-04-06 10:29:00,53.2,50.3,30.14,SSE,158,0.0,1.0,90,0.00,,,0.00,WeatherCatV1.02B3,2013-04-06 17:29:00,
2013-04-06 10:34:00,53.3,50.1,30.14,SSE,160,0.0,1.0,89,0.00,,,0.00,WeatherCatV1.02B3,2013-04-06 17:34:00,
2013-04-06 10:39:00,53.5,50.0,30.14,East,96,0.0,0.0,88,0.00,,,0.00,WeatherCatV1.02B3,2013-04-06 17:39:00,
2013-04-06 10:44:00,53.8,50.6,30.14,SSE,150,0.0,0.0,89,0.00,,,0.00,WeatherCatV1.02B3,2013-04-06 17:44:00,
2013-04-06 10:49:00,54.0,50.2,30.14,SSE,161,0.0,1.0,87,0.00,,,0.00,WeatherCatV1.02B3,2013-04-06 17:49:00,
2013-04-06 10:54:00,54.2,50.4,30.14,SSE,161,0.0,2.0,87,0.00,,,0.00,WeatherCatV1.02B3,2013-04-06 17:54:00,
2013-04-06 10:59:00,54.3,50.5,30.14,WSW,256,0.0,0.0,87,0.00,,,0.00,WeatherCatV1.02B3,2013-04-06 17:59:00,
2013-04-06 11:04:00,54.4,50.3,30.14,WSW,252,0.0,1.0,86,0.00,,,0.00,WeatherCatV1.02B3,2013-04-06 18:04:00,
2013-04-06 11:09:00,54.4,50.3,30.14,SE,142,0.0,0.0,86,0.00,,,0.00,WeatherCatV1.02B3,2013-04-06 18:09:00,
2013-04-06 11:14:00,54.4,50.6,30.15,SSE,156,0.0,0.0,87,0.00,,,0.00,WeatherCatV1.02B3,2013-04-06 18:14:00,
2013-04-06 11:19:00,54.3,50.5,30.15,South,171,0.0,0.0,87,0.00,,,0.00,WeatherCatV1.02B3,2013-04-06 18:19:00,
2013-04-06 11:24:00,54.3,51.1,30.15,ESE,116,0.0,0.0,89,0.00,,,0.00,WeatherCatV1.02B3,2013-04-06 18:24:00,
2013-04-06 11:29:00,54.4,50.9,30.15,ESE,116,0.0,0.0,88,0.00,,,0.00,WeatherCatV1.02B3,2013-04-06 18:29:00,
2013-04-06 11:34:00,54.5,50.4,30.15,SE,130,0.0,1.0,86,0.00,,,0.00,WeatherCatV1.02B3,2013-04-06 18:34:00,
2013-04-06 11:39:00,54.5,50.4,30.15,SSE,151,0.0,3.0,86,0.00,,,0.00,WeatherCatV1.02B3,2013-04-06 18:39:00,
2013-04-06 11:44:00,54.4,50.9,30.15,SSE,151,0.0,0.0,88,0.00,,,0.00,WeatherCatV1.02B3,2013-04-06 18:44:00,
2013-04-06 11:49:00,54.4,50.9,30.15,SSE,151,0.0,2.0,88,0.00,,,0.00,WeatherCatV1.02B3,2013-04-06 18:49:00,
2013-04-06 11:54:00,54.4,50.6,30.15,SE,138,0.0,0.0,87,0.00,,,0.00,WeatherCatV1.02B3,2013-04-06 18:54:00,
2013-04-06 11:59:00,54.5,50.7,30.16,SSE,150,0.0,2.0,87,0.00,,,0.00,WeatherCatV1.02B3,2013-04-06 18:59:00,
2013-04-06 12:04:00,54.5,51.3,30.16,SSE,150,1.0,1.0,89,0.00,,,0.00,WeatherCatV1.02B3,2013-04-06 19:04:00,
2013-04-06 12:09:00,54.6,51.1,30.16,SE,144,0.0,1.0,88,0.00,,,0.00,WeatherCatV1.02B3,2013-04-06 19:09:00,
2013-04-06 12:14:00,54.8,51.3,30.15,SSE,151,0.0,2.0,88,0.00,,,0.00,WeatherCatV1.02B3,2013-04-06 19:14:00,
2013-04-06 12:19:00,54.9,51.4,30.15,SSE,151,0.0,1.0,88,0.00,,,0.00,WeatherCatV1.02B3,2013-04-06 19:19:00,
2013-04-06 12:24:00,55.1,51.6,30.15,SSE,152,0.0,0.0,88,0.00,,,0.00,WeatherCatV1.02B3,2013-04-06 19:24:00,
2013-04-06 12:29:00,55.3,52.1,30.15,SSE,152,0.0,0.0,89,0.00,,,0.00,WeatherCatV1.02B3,2013-04-06 19:29:00,
2013-04-06 12:34:00,55.5,52.3,30.15,SSE,151,0.0,0.0,89,0.00,,,0.00,WeatherCatV1.02B3,2013-04-06 19:34:00,
2013-04-06 12:39:00,55.8,52.3,30.15,SE,134,0.0,1.0,88,0.00,,,0.00,WeatherCatV1.02B3,2013-04-06 19:39:00,
2013-04-06 12:44:00,55.9,52.4,30.15,SSE,160,0.0,0.0,88,0.00,,,0.00,WeatherCatV1.02B3,2013-04-06 19:44:00,
2013-04-06 12:49:00,56.2,52.7,30.15,SSE,160,0.0,0.0,88,0.00,,,0.00,WeatherCatV1.02B3,2013-04-06 19:49:00,
2013-04-06 12:55:00,56.4,52.9,30.15,SE,125,0.0,1.0,88,0.00,,,0.00,WeatherCatV1.02B3,2013-04-06 19:55:00,
2013-04-06 13:00:00,56.3,52.8,30.14,SSE,149,0.0,1.0,88,0.00,,,0.00,WeatherCatV1.02B3,2013-04-06 20:00:00,
2013-04-06 13:05:00,56.3,52.5,30.14,East,88,0.0,1.0,87,0.00,,,0.00,WeatherCatV1.02B3,2013-04-06 20:05:00,
2013-04-06 13:10:00,56.0,52.2,30.14,SE,144,0.0,1.0,87,0.00,,,0.00,WeatherCatV1.02B3,2013-04-06 20:10:00,
2013-04-06 13:15:00,55.9,52.4,30.14,SE,142,0.0,2.0,88,0.00,,,0.00,WeatherCatV1.02B3,2013-04-06 20:15:00,
2013-04-06 13:20:00,55.9,53.3,30.14,SE,142,0.0,0.0,91,0.00,,,0.00,WeatherCatV1.02B3,2013-04-06 20:20:00,
2013-04-06 13:25:00,56.0,52.8,30.14,SE,140,0.0,3.0,89,0.00,,,0.00,WeatherCatV1.02B3,2013-04-06 20:25:00,
2013-04-06 13:30:00,56.2,53.3,30.13,SSE,148,0.0,1.0,90,0.00,,,0.00,WeatherCatV1.02B3,2013-04-06 20:30:00,
2013-04-06 13:35:00,56.4,52.9,30.13,SSE,148,0.0,0.0,88,0.00,,,0.00,WeatherCatV1.02B3,2013-04-06 20:35:00,
2013-04-06 13:40:00,56.9,53.7,30.13,NNW,337,0.0,2.0,89,0.00,,,0.00,WeatherCatV1.02B3,2013-04-06 20:40:00,
2013-04-06 13:45:00,57.4,53.9,30.13,SSE,165,2.0,2.0,88,0.00,,,0.00,WeatherCatV1.02B3,2013-04-06 20:45:00,
2013-04-06 13:50:00,57.8,53.6,30.13,North,353,0.0,1.0,86,0.00,,,0.00,WeatherCatV1.02B3,2013-04-06 20:50:00,
2013-04-06 13:55:00,58.4,53.9,30.13,SSE,162,0.0,5.0,85,0.00,,,0.00,WeatherCatV1.02B3,2013-04-06 20:55:00,
2013-04-06 14:00:00,58.7,53.2,30.12,SSE,167,0.0,3.0,82,0.00,,,0.00,WeatherCatV1.02B3,2013-04-06 21:00:00,
2013-04-06 14:05:00,58.7,53.2,30.12,SSE,167,0.0,1.0,82,0.00,,,0.00,WeatherCatV1.02B3,2013-04-06 21:05:00,
2013-04-06 14:10:00,58.6,53.1,30.12,SSE,166,0.0,0.0,82,0.00,,,0.00,WeatherCatV1.02B3,2013-04-06 21:10:00,
2013-04-06 14:15:00,58.3,53.2,30.12,SW,217,0.0,1.0,83,0.00,,,0.00,WeatherCatV1.02B3,2013-04-06 21:15:00,
2013-04-06 14:20:00,58.1,53.0,30.12,South,179,0.0,1.0,83,0.00,,,0.00,WeatherCatV1.02B3,2013-04-06 21:20:00,
2013-04-06 14:25:00,57.9,53.1,30.12,South,185,0.0,1.0,84,0.00,,,0.00,WeatherCatV1.02B3,2013-04-06 21:25:00,
2013-04-06 14:30:00,57.7,52.2,30.12,NNW,328,0.0,2.0,82,0.00,,,0.00,WeatherCatV1.02B3,2013-04-06 21:30:00,
2013-04-06 14:35:00,57.5,52.4,30.12,East,86,0.0,1.0,83,0.00,,,0.00,WeatherCatV1.02B3,2013-04-06 21:35:00,
2013-04-06 14:40:00,57.2,52.4,30.12,SE,129,0.0,1.0,84,0.00,,,0.00,WeatherCatV1.02B3,2013-04-06 21:40:00,
2013-04-06 14:45:00,57.0,52.2,30.12,SSE,167,0.0,1.0,84,0.00,,,0.00,WeatherCatV1.02B3,2013-04-06 21:45:00,
2013-04-06 14:50:00,56.9,52.4,30.12,SSE,160,0.0,0.0,85,0.00,,,0.00,WeatherCatV1.02B3,2013-04-06 21:50:00,
2013-04-06 14:55:00,56.9,52.4,30.12,North,358,0.0,0.0,85,0.00,,,0.00,WeatherCatV1.02B3,2013-04-06 21:55:00,
2013-04-06 15:00:00,56.8,52.7,30.12,East,84,0.0,0.0,86,0.00,,,0.00,WeatherCatV1.02B3,2013-04-06 22:00:00,
2013-04-06 15:05:00,56.8,53.0,30.12,East,84,0.0,0.0,87,0.00,,,0.00,WeatherCatV1.02B3,2013-04-06 22:05:00,
2013-04-06 15:10:00,57.0,53.2,30.12,East,84,0.0,0.0,87,0.00,,,0.00,WeatherCatV1.02B3,2013-04-06 22:10:00,
2013-04-06 15:15:00,57.0,52.9,30.11,East,94,0.0,1.0,86,0.00,,,0.00,WeatherCatV1.02B3,2013-04-06 22:15:00,
2013-04-06 15:20:00,57.0,53.2,30.11,East,94,0.0,0.0,87,0.00,,,0.00,WeatherCatV1.02B3,2013-04-06 22:20:00,
2013-04-06 15:25:00,57.1,53.3,30.11,East,94,0.0,0.0,87,0.00,,,0.00,WeatherCatV1.02B3,2013-04-06 22:25:00,
2013-04-06 15:30:00,57.1,53.3,30.11,SE,135,0.0,1.0,87,0.00,,,0.00,WeatherCatV1.02B3,2013-04-06 22:30:00,
2013-04-06 15:35:00,57.2,53.4,30.11,SSE,150,0.0,0.0,87,0.00,,,0.00,WeatherCatV1.02B3,2013-04-06 22:35:00,
2013-04-06 15:40:00,57.7,54.2,30.11,ESE,115,0.0,1.0,88,0.00,,,0.00,WeatherCatV1.02B3,2013-04-06 22:40:00,
2013-04-06 15:45:00,58.0,53.5,30.11,SSE,149,1.0,1.0,85,0.00,,,0.00,WeatherCatV1.02B3,2013-04-06 22:45:00,
2013-04-06 15:50:00,58.3,53.5,30.11,SSE,162,1.0,1.0,84,0.00,,,0.00,WeatherCatV1.02B3,2013-04-06 22:50:00,
2013-04-06 15:55:00,58.6,53.8,30.11,SSE,158,1.0,2.0,84,0.00,,,0.00,WeatherCatV1.02B3,2013-04-06 22:55:00,
2013-04-06 16:00:00,58.9,54.1,30.11,SSE,153,0.0,1.0,84,0.00,,,0.00,WeatherCatV1.02B3,2013-04-06 23:00:00,
2013-04-06 16:05:00,59.1,53.6,30.11,SE,144,0.0,2.0,82,0.00,,,0.00,WeatherCatV1.02B3,2013-04-06 23:05:00,
2013-04-06 16:10:00,59.1,53.6,30.11,NNE,13,0.0,0.0,82,0.00,,,0.00,WeatherCatV1.02B3,2013-04-06 23:10:00,
2013-04-06 16:15:00,59.2,54.0,30.10,SE,132,0.0,0.0,83,0.00,,,0.00,WeatherCatV1.02B3,2013-04-06 23:15:00,
2013-04-06 16:20:00,59.3,53.1,30.10,SE,135,0.0,0.0,80,0.00,,,0.00,WeatherCatV1.02B3,2013-04-06 23:20:00,
2013-04-06 16:25:00,59.5,53.0,30.10,East,94,0.0,1.0,79,0.00,,,0.00,WeatherCatV1.02B3,2013-04-06 23:25:00,
2013-04-06 16:30:00,59.5,49.7,30.10,South,188,0.0,1.0,70,0.00,,,0.00,WeatherCatV1.02B3,2013-04-06 23:30:00,
2013-04-06 16:35:00,59.4,48.0,30.10,North,0,4.0,6.0,66,0.00,,,0.00,WeatherCatV1.02B3,2013-04-06 23:35:00,
2013-04-06 16:40:00,59.2,48.6,30.10,North,356,0.0,6.0,68,0.00,,,0.00,WeatherCatV1.02B3,2013-04-06 23:40:00,
2013-04-06 16:45:00,59.1,48.5,30.10,NNW,330,7.0,9.0,68,0.00,,,0.00,WeatherCatV1.02B3,2013-04-06 23:45:00,
2013-04-06 16:50:00,58.8,48.3,30.10,NNW,337,2.0,6.0,68,0.00,,,0.00,WeatherCatV1.02B3,2013-04-06 23:50:00,
2013-04-06 16:55:00,58.6,48.5,30.10,NNW,337,6.0,7.0,69,0.00,,,0.00,WeatherCatV1.02B3,2013-04-06 23:55:00,
2013-04-06 17:00:00,58.6,49.2,30.10,East,89,0.0,0.0,71,0.00,,,0.00,WeatherCatV1.02B3,2013-04-07 00:00:00,
2013-04-06 17:05:00,58.6,48.8,30.10,NNE,25,0.0,0.0,70,0.00,,,0.00,WeatherCatV1.02B3,2013-04-07 00:05:00,
2013-04-06 17:10:00,58.5,48.4,30.10,North,355,0.0,3.0,69,0.00,,,0.00,WeatherCatV1.02B3,2013-04-07 00:10:00,
2013-04-06 17:15:00,58.4,49.4,30.10,SSW,196,2.0,7.0,72,0.00,,,0.00,WeatherCatV1.02B3,2013-04-07 00:15:00,
2013-04-06 17:20:00,58.3,48.9,30.10,North,352,2.0,4.0,71,0.00,,,0.00,WeatherCatV1.02B3,2013-04-07 00:20:00,
2013-04-06 17:25:00,58.1,48.7,30.10,NNE,17,1.0,3.0,71,0.00,,,0.00,WeatherCatV1.02B3,2013-04-07 00:25:00,
2013-04-06 17:30:00,57.9,48.6,30.09,NNW,334,1.0,3.0,71,0.00,,,0.00,WeatherCatV1.02B3,2013-04-07 00:30:00,
2013-04-06 17:35:00,57.8,48.5,30.09,NNW,333,2.0,2.0,71,0.00,,,0.00,WeatherCatV1.02B3,2013-04-07 00:35:00,
2013-04-06 17:40:00,57.8,49.2,30.09,NNW,339,0.0,1.0,73,0.00,,,0.00,WeatherCatV1.02B3,2013-04-07 00:40:00,
2013-04-06 17:45:00,57.7,49.1,30.09,NNW,344,0.0,1.0,73,0.00,,,0.00,WeatherCatV1.02B3,2013-04-07 00:45:00,
2013-04-06 17:50:00,57.6,48.6,30.09,NNE,13,1.0,4.0,72,0.00,,,0.00,WeatherCatV1.02B3,2013-04-07 00:50:00,
2013-04-06 17:55:00,57.4,48.8,30.09,NNW,330,0.0,4.0,73,0.00,,,0.00,WeatherCatV1.02B3,2013-04-07 00:55:00,
2013-04-06 18:00:00,57.2,49.7,30.10,NNW,339,0.0,0.0,76,0.00,,,0.00,WeatherCatV1.02B3,2013-04-07 01:00:00,
2013-04-06 18:05:00,57.1,49.2,30.10,North,349,1.0,3.0,75,0.00,,,0.00,WeatherCatV1.02B3,2013-04-07 01:05:00,
2013-04-06 18:10:00,56.9,48.3,30.10,NNW,340,1.0,3.0,73,0.00,,,0.00,WeatherCatV1.02B3,2013-04-07 01:10:00,
2013-04-06 18:15:00,56.7,48.5,30.10,NNW,337,3.0,3.0,74,0.00,,,0.00,WeatherCatV1.02B3,2013-04-07 01:15:00,
2013-04-06 18:20:00,56.6,48.4,30.10,NNW,337,0.0,2.0,74,0.00,,,0.00,WeatherCatV1.02B3,2013-04-07 01:20:00,
2013-04-06 18:25:00,56.4,48.6,30.10,NNE,21,0.0,3.0,75,0.00,,,0.00,WeatherCatV1.02B3,2013-04-07 01:25:00,
2013-04-06 18:30:00,56.2,48.4,30.10,NNW,333,0.0,3.0,75,0.00,,,0.00,WeatherCatV1.02B3,2013-04-07 01:30:00,
2013-04-06 18:35:00,56.0,48.9,30.10,NNW,337,0.0,1.0,77,0.00,,,0.00,WeatherCatV1.02B3,2013-04-07 01:35:00,
2013-04-06 18:40:00,55.7,48.6,30.10,NW,320,0.0,2.0,77,0.00,,,0.00,WeatherCatV1.02B3,2013-04-07 01:40:00,
2013-04-06 18:45:00,55.6,48.8,30.09,NW,320,0.0,1.0,78,0.00,,,0.00,WeatherCatV1.02B3,2013-04-07 01:45:00,
2013-04-06 18:50:00,55.4,48.3,30.09,NNW,329,0.0,1.0,77,0.00,,,0.00,WeatherCatV1.02B3,2013-04-07 01:50:00,
2013-04-06 18:55:00,55.3,48.9,30.09,NNW,329,0.0,1.0,79,0.00,,,0.00,WeatherCatV1.02B3,2013-04-07 01:55:00,
2013-04-06 19:00:00,55.1,48.4,30.10,NNW,335,0.0,1.0,78,0.00,,,0.00,WeatherCatV1.02B3,2013-04-07 02:00:00,
2013-04-06 19:05:00,55.0,48.9,30.10,NNW,335,0.0,0.0,80,0.00,,,0.00,WeatherCatV1.02B3,2013-04-07 02:05:00,
2013-04-06 19:10:00,54.7,49.0,30.10,NNW,335,0.0,0.0,81,0.00,,,0.00,WeatherCatV1.02B3,2013-04-07 02:10:00,
2013-04-06 19:15:00,54.5,48.8,30.09,NNW,337,0.0,1.0,81,0.00,,,0.00,WeatherCatV1.02B3,2013-04-07 02:15:00,
2013-04-06 19:20:00,54.3,48.9,30.09,NNW,337,0.0,0.0,82,0.00,,,0.00,WeatherCatV1.02B3,2013-04-07 02:20:00,
2013-04-06 19:25:00,54.2,49.1,30.09,NNW,337,0.0,0.0,83,0.00,,,0.00,WeatherCatV1.02B3,2013-04-07 02:25:00,
2013-04-06 19:30:00,53.9,48.9,30.09,NNW,337,0.0,1.0,83,0.00,,,0.00,WeatherCatV1.02B3,2013-04-07 02:30:00,
2013-04-06 19:35:00,53.6,48.6,30.09,NNW,337,0.0,0.0,83,0.00,,,0.00,WeatherCatV1.02B3,2013-04-07 02:35:00,
2013-04-06 19:40:00,53.3,48.6,30.09,NNW,339,0.0,2.0,84,0.00,,,0.00,WeatherCatV1.02B3,2013-04-07 02:40:00,
2013-04-06 19:45:00,53.1,48.7,30.10,NNW,341,1.0,3.0,85,0.00,,,0.00,WeatherCatV1.02B3,2013-04-07 02:45:00,
2013-04-06 19:50:00,52.8,48.7,30.10,NNW,335,2.0,3.0,86,0.00,,,0.00,WeatherCatV1.02B3,2013-04-07 02:50:00,
2013-04-06 19:55:00,52.5,48.7,30.10,NNW,341,2.0,3.0,87,0.00,,,0.00,WeatherCatV1.02B3,2013-04-07 02:55:00,
2013-04-06 20:00:00,52.4,49.0,30.10,NNW,332,3.0,4.0,88,0.00,,,0.00,WeatherCatV1.02B3,2013-04-07 03:00:00,
2013-04-06 20:05:00,52.2,48.8,30.10,NNW,341,3.0,4.0,88,0.00,,,0.00,WeatherCatV1.02B3,2013-04-07 03:05:00,
2013-04-06 20:10:00,52.1,48.7,30.10,NNW,333,3.0,4.0,88,0.00,,,0.00,WeatherCatV1.02B3,2013-04-07 03:10:00,
2013-04-06 20:15:00,52.0,48.6,30.10,North,350,5.0,5.0,88,0.00,,,0.00,WeatherCatV1.02B3,2013-04-07 03:15:00,
2013-04-06 20:20:00,51.9,48.5,30.10,NNW,343,2.0,3.0,88,0.00,,,0.00,WeatherCatV1.02B3,2013-04-07 03:20:00,
2013-04-06 20:25:00,51.7,48.6,30.10,NW,323,4.0,6.0,89,0.00,,,0.00,WeatherCatV1.02B3,2013-04-07 03:25:00,
2013-04-06 20:30:00,51.5,48.4,30.11,NNE,21,2.0,5.0,89,0.00,,,0.00,WeatherCatV1.02B3,2013-04-07 03:30:00,
2013-04-06 20:35:00,51.4,48.6,30.11,NNW,339,3.0,4.0,90,0.00,,,0.00,WeatherCatV1.02B3,2013-04-07 03:35:00,
2013-04-06 20:40:00,51.2,48.4,30.11,NNW,338,3.0,4.0,90,0.00,,,0.00,WeatherCatV1.02B3,2013-04-07 03:40:00,
2013-04-06 20:45:00,51.0,48.5,30.11,NNW,339,3.0,4.0,91,0.00,,,0.00,WeatherCatV1.02B3,2013-04-07 03:45:00,
2013-04-06 20:50:00,50.9,48.4,30.11,NNW,331,3.0,4.0,91,0.00,,,0.00,WeatherCatV1.02B3,2013-04-07 03:50:00,
2013-04-06 20:55:00,50.8,48.3,30.11,NNW,337,3.0,4.0,91,0.00,,,0.00,WeatherCatV1.02B3,2013-04-07 03:55:00,
2013-04-06 21:00:00,50.7,48.5,30.11,NNW,333,3.0,5.0,92,0.00,,,0.00,WeatherCatV1.02B3,2013-04-07 04:00:00,
2013-04-06 21:01:00,50.7,48.5,30.11,NNW,345,4.0,5.0,92,0.00,,,0.00,WeatherCatV1.02B3,2013-04-07 04:01:00,
2013-04-06 21:06:00,50.8,48.3,30.11,NNW,327,3.0,5.0,91,0.00,,,0.00,WeatherCatV1.02B3,2013-04-07 04:06:00,
2013-04-06 21:11:00,50.9,47.5,30.11,NNW,336,4.0,5.0,88,0.00,,,0.00,WeatherCatV1.02B3,2013-04-07 04:11:00,
2013-04-06 21:16:00,51.2,46.8,30.11,North,357,2.0,5.0,85,0.00,,,0.00,WeatherCatV1.02B3,2013-04-07 04:16:00,
2013-04-06 21:21:00,51.4,46.4,30.11,NNW,335,2.0,3.0,83,0.00,,,0.00,WeatherCatV1.02B3,2013-04-07 04:21:00,
2013-04-06 21:26:00,51.5,45.2,30.11,NNW,337,3.0,4.0,79,0.00,,,0.00,WeatherCatV1.02B3,2013-04-07 04:26:00,
2013-04-06 21:31:00,51.5,44.9,30.11,NNW,334,3.0,4.0,78,0.00,,,0.00,WeatherCatV1.02B3,2013-04-07 04:31:00,
2013-04-06 21:36:00,51.5,44.5,30.11,NNW,345,0.0,3.0,77,0.00,,,0.00,WeatherCatV1.02B3,2013-04-07 04:36:00,
2013-04-06 21:41:00,51.2,44.2,30.11,NNW,333,0.0,2.0,77,0.00,,,0.00,WeatherCatV1.02B3,2013-04-07 04:41:00,
2013-04-06 21:46:00,50.9,44.3,30.12,NNW,332,0.0,1.0,78,0.00,,,0.00,WeatherCatV1.02B3,2013-04-07 04:46:00,
2013-04-06 21:51:00,50.6,44.0,30.12,NNW,331,1.0,1.0,78,0.00,,,0.00,WeatherCatV1.02B3,2013-04-07 04:51:00,
2013-04-06 21:56:00,50.3,44.4,30.12,NNW,340,1.0,2.0,80,0.00,,,0.00,WeatherCatV1.02B3,2013-04-07 04:56:00,
2013-04-06 22:01:00,50.1,45.5,30.12,NNW,341,2.0,3.0,84,0.00,,,0.00,WeatherCatV1.02B3,2013-04-07 05:01:00,
2013-04-06 22:06:00,50.2,46.5,30.12,NNW,335,0.0,1.0,87,0.00,,,0.00,WeatherCatV1.02B3,2013-04-07 05:06:00,
2013-04-06 22:11:00,50.1,46.7,30.12,NNW,337,1.0,2.0,88,0.00,,,0.00,WeatherCatV1.02B3,2013-04-07 05:11:00,
2013-04-06 22:16:00,49.9,46.5,30.12,NNW,341,0.0,2.0,88,0.00,,,0.00,WeatherCatV1.02B3,2013-04-07 05:16:00,
2013-04-06 22:21:00,49.5,46.1,30.12,NNW,348,0.0,1.0,88,0.00,,,0.00,WeatherCatV1.02B3,2013-04-07 05:21:00,
2013-04-06 22:26:00,49.4,46.0,30.12,NNW,348,0.0,0.0,88,0.00,,,0.00,WeatherCatV1.02B3,2013-04-07 05:26:00,
2013-04-06 22:31:00,49.3,45.0,30.12,NNW,348,0.0,0.0,85,0.00,,,0.00,WeatherCatV1.02B3,2013-04-07 05:31:00,
2013-04-06 22:36:00,49.1,43.5,30.12,NNW,348,0.0,0.0,81,0.00,,,0.00,WeatherCatV1.02B3,2013-04-07 05:36:00,
2013-04-06 22:41:00,49.1,42.9,30.12,NNW,348,0.0,0.0,79,0.00,,,0.00,WeatherCatV1.02B3,2013-04-07 05:41:00,
2013-04-06 22:46:00,49.2,42.3,30.12,NNW,348,0.0,0.0,77,0.00,,,0.00,WeatherCatV1.02B3,2013-04-07 05:46:00,
2013-04-06 22:51:00,49.4,42.2,30.12,North,349,0.0,0.0,76,0.00,,,0.00,WeatherCatV1.02B3,2013-04-07 05:51:00,
2013-04-06 22:56:00,49.4,41.5,30.12,NNW,348,0.0,1.0,74,0.00,,,0.00,WeatherCatV1.02B3,2013-04-07 05:56:00,
2013-04-06 23:01:00,49.6,40.9,30.12,NNW,333,2.0,3.0,72,0.00,,,0.00,WeatherCatV1.02B3,2013-04-07 06:01:00,
2013-04-06 23:07:00,50.2,40.4,30.12,NNW,329,3.0,4.0,69,0.00,,,0.00,WeatherCatV1.02B3,2013-04-07 06:07:00,
2013-04-06 23:12:00,50.9,41.1,30.12,NNW,341,2.0,4.0,69,0.00,,,0.00,WeatherCatV1.02B3,2013-04-07 06:12:00,
2013-04-06 23:17:00,51.3,40.7,30.13,NNW,341,1.0,3.0,67,0.00,,,0.00,WeatherCatV1.02B3,2013-04-07 06:17:00,
2013-04-06 23:22:00,51.5,40.5,30.13,NNW,334,3.0,4.0,66,0.00,,,0.00,WeatherCatV1.02B3,2013-04-07 06:22:00,
2013-04-06 23:27:00,51.7,40.3,30.13,NNW,333,4.0,4.0,65,0.00,,,0.00,WeatherCatV1.02B3,2013-04-07 06:27:00,
2013-04-06 23:32:00,51.9,40.5,30.12,NNW,331,3.0,4.0,65,0.00,,,0.00,WeatherCatV1.02B3,2013-04-07 06:32:00,
2013-04-06 23:37:00,51.9,40.1,30.12,NNW,335,2.0,3.0,64,0.00,,,0.00,WeatherCatV1.02B3,2013-04-07 06:37:00,
2013-04-06 23:42:00,52.0,40.6,30.12,NNW,344,1.0,3.0,65,0.00,,,0.00,WeatherCatV1.02B3,2013-04-07 06:42:00,
2013-04-06 23:47:00,51.9,40.5,30.13,NNW,334,1.0,3.0,65,0.00,,,0.00,WeatherCatV1.02B3,2013-04-07 06:47:00,
2013-04-06 23:52:00,51.8,40.0,30.13,NNW,341,0.0,2.0,64,0.00,,,0.00,WeatherCatV1.02B3,2013-04-07 06:52:00,
2013-04-06 23:57:00,51.8,40.4,30.13,NNW,329,2.0,2.0,65,0.00,,,0.00,WeatherCatV1.02B3,2013-04-07 06:57:00,